Time,TemperatureF,DewpointF,PressureIn,WindDirection,WindDirectionDegrees,WindSpeedMPH,WindSpeedGustMPH,Humidity,HourlyPrecipIn,Conditions,Clouds,dailyrainin,SoftwareType,DateUTC
2013-02-15 01:21:00,56.0,22.0,30.06,ENE,70,12.0,36.0,26,0.00,,,-99.99,,2013-02-15 09:21:00,
2013-02-15 01:32:00,56.0,22.0,30.06,ENE,70,12.0,36.0,26,0.00,,,-99.99,,2013-02-15 09:32:00,
2013-02-15 01:41:00,56.0,22.0,30.06,ENE,70,12.0,36.0,26,0.00,,,-99.99,,2013-02-15 09:41:00,
2013-02-15 01:51:00,56.0,22.0,30.06,ENE,70,12.0,36.0,26,0.00,,,-99.99,,2013-02-15 09:51:00,
2013-02-15 02:21:00,55.0,22.0,30.03,ENE,70,21.0,41.0,27,0.00,,,-99.99,,2013-02-15 10:21:00,
2013-02-15 02:31:00,55.0,22.0,30.03,ENE,70,21.0,41.0,27,0.00,,,-99.99,,2013-02-15 10:31:00,
2013-02-15 02:41:00,55.0,22.0,30.03,ENE,70,21.0,41.0,27,0.00,,,-99.99,,2013-02-15 10:41:00,
2013-02-15 02:51:00,55.0,22.0,30.03,ENE,70,21.0,41.0,27,0.00,,,-99.99,,2013-02-15 10:51:00,
2013-02-15 03:22:00,55.0,22.0,30.02,ENE,70,25.0,35.0,27,0.00,,,-99.99,,2013-02-15 11:22:00,
2013-02-15 03:31:00,55.0,22.0,30.02,ENE,70,25.0,35.0,27,0.00,,,-99.99,,2013-02-15 11:31:00,
2013-02-15 03:42:00,55.0,22.0,30.02,ENE,70,25.0,35.0,27,0.00,,,-99.99,,2013-02-15 11:42:00,
2013-02-15 03:52:00,55.0,22.0,30.02,ENE,70,25.0,35.0,27,0.00,,,-99.99,,2013-02-15 11:52:00,
2013-02-15 04:21:00,55.0,23.0,30.02,East,80,16.0,36.0,28,0.00,,,-99.99,,2013-02-15 12:21:00,
2013-02-15 04:32:00,55.0,23.0,30.02,East,80,16.0,36.0,28,0.00,,,-99.99,,2013-02-15 12:32:00,
2013-02-15 04:42:00,55.0,23.0,30.02,East,80,16.0,36.0,28,0.00,,,-99.99,,2013-02-15 12:42:00,
2013-02-15 04:52:00,55.0,23.0,30.02,East,80,16.0,36.0,28,0.00,,,-99.99,,2013-02-15 12:52:00,
2013-02-15 05:21:00,54.0,22.0,30.02,East,80,31.0,38.0,28,0.00,,,-99.99,,2013-02-15 13:21:00,
2013-02-15 05:32:00,54.0,22.0,30.02,East,80,31.0,38.0,28,0.00,,,-99.99,,2013-02-15 13:32:00,
2013-02-15 05:41:00,54.0,22.0,30.02,East,80,31.0,38.0,28,0.00,,,-99.99,,2013-02-15 13:41:00,
2013-02-15 05:51:00,54.0,22.0,30.02,East,80,31.0,38.0,28,0.00,,,-99.99,,2013-02-15 13:51:00,
2013-02-15 06:21:00,54.0,22.0,30.00,East,80,16.0,41.0,28,0.00,,,-99.99,,2013-02-15 14:21:00,
2013-02-15 06:32:00,54.0,22.0,30.00,East,80,16.0,41.0,28,0.00,,,-99.99,,2013-02-15 14:32:00,
2013-02-15 06:41:00,54.0,22.0,30.00,East,80,16.0,41.0,28,0.00,,,-99.99,,2013-02-15 14:41:00,
2013-02-15 06:52:00,54.0,22.0,30.00,East,80,16.0,41.0,28,0.00,,,-99.99,,2013-02-15 14:52:00,
2013-02-15 07:21:00,54.0,21.0,30.00,East,80,22.0,43.0,27,0.00,,,-99.99,,2013-02-15 15:21:00,
2013-02-15 07:32:00,54.0,21.0,30.00,East,80,22.0,43.0,27,0.00,,,-99.99,,2013-02-15 15:32:00,
2013-02-15 07:41:00,54.0,21.0,30.00,East,80,22.0,43.0,27,0.00,,,-99.99,,2013-02-15 15:41:00,
2013-02-15 07:51:00,54.0,21.0,30.00,East,80,22.0,43.0,27,0.00,,,-99.99,,2013-02-15 15:51:00,
2013-02-15 08:22:00,55.0,22.0,30.04,East,80,7.0,47.0,27,0.00,,,-99.99,,2013-02-15 16:22:00,
2013-02-15 08:31:00,55.0,22.0,30.04,East,80,7.0,47.0,27,0.00,,,-99.99,,2013-02-15 16:31:00,
2013-02-15 08:42:00,55.0,22.0,30.04,East,80,7.0,47.0,27,0.00,,,-99.99,,2013-02-15 16:42:00,
2013-02-15 08:51:00,55.0,22.0,30.04,East,80,7.0,47.0,27,0.00,,,-99.99,,2013-02-15 16:51:00,
2013-02-15 09:21:00,57.0,22.0,30.03,East,80,24.0,43.0,25,0.00,,,-99.99,,2013-02-15 17:21:00,
2013-02-15 09:32:00,57.0,22.0,30.03,East,80,24.0,43.0,25,0.00,,,-99.99,,2013-02-15 17:32:00,
2013-02-15 09:41:00,57.0,22.0,30.03,East,80,24.0,43.0,25,0.00,,,-99.99,,2013-02-15 17:41:00,
2013-02-15 09:52:00,57.0,22.0,30.03,East,80,24.0,43.0,25,0.00,,,-99.99,,2013-02-15 17:52:00,
2013-02-15 10:21:00,59.0,22.0,30.03,ENE,70,15.0,45.0,24,0.00,,,-99.99,,2013-02-15 18:21:00,
2013-02-15 10:31:00,59.0,22.0,30.03,ENE,70,15.0,45.0,24,0.00,,,-99.99,,2013-02-15 18:31:00,
2013-02-15 10:41:00,59.0,22.0,30.03,ENE,70,15.0,45.0,24,0.00,,,-99.99,,2013-02-15 18:41:00,
2013-02-15 10:52:00,59.0,22.0,30.03,ENE,70,15.0,45.0,24,0.00,,,-99.99,,2013-02-15 18:52:00,
2013-02-15 11:22:00,61.0,21.0,30.04,ENE,70,25.0,47.0,21,0.00,,,-99.99,,2013-02-15 19:22:00,
2013-02-15 11:32:00,61.0,21.0,30.04,ENE,70,25.0,47.0,21,0.00,,,-99.99,,2013-02-15 19:32:00,
2013-02-15 11:41:00,61.0,21.0,30.04,ENE,70,25.0,47.0,21,0.00,,,-99.99,,2013-02-15 19:41:00,
2013-02-15 11:51:00,61.0,21.0,30.04,ENE,70,25.0,47.0,21,0.00,,,-99.99,,2013-02-15 19:51:00,
2013-02-15 12:21:00,60.0,21.0,30.06,East,80,14.0,41.0,22,0.00,,,-99.99,,2013-02-15 20:21:00,
2013-02-15 12:32:00,60.0,21.0,30.06,East,80,14.0,41.0,22,0.00,,,-99.99,,2013-02-15 20:32:00,
2013-02-15 12:42:00,60.0,21.0,30.06,East,80,14.0,41.0,22,0.00,,,-99.99,,2013-02-15 20:42:00,
2013-02-15 12:52:00,60.0,21.0,30.06,East,80,14.0,41.0,22,0.00,,,-99.99,,2013-02-15 20:52:00,
2013-02-15 13:21:00,60.0,19.0,30.07,North,0,0.0,22.0,20,0.00,,,-99.99,,2013-02-15 21:21:00,
2013-02-15 13:31:00,60.0,19.0,30.07,North,0,0.0,22.0,20,0.00,,,-99.99,,2013-02-15 21:31:00,
2013-02-15 13:42:00,60.0,19.0,30.07,North,0,0.0,22.0,20,0.00,,,-99.99,,2013-02-15 21:42:00,
2013-02-15 13:51:00,60.0,19.0,30.07,North,0,0.0,22.0,20,0.00,,,-99.99,,2013-02-15 21:51:00,
2013-02-15 14:41:00,62.0,18.0,30.09,ESE,110,20.0,24.0,18,0.00,,,-99.99,,2013-02-15 22:41:00,
2013-02-15 14:51:00,62.0,18.0,30.09,ESE,110,20.0,24.0,18,0.00,,,-99.99,,2013-02-15 22:51:00,
2013-02-15 15:21:00,61.0,17.0,30.08,ESE,110,8.0,26.0,18,0.00,,,-99.99,,2013-02-15 23:21:00,
2013-02-15 15:31:00,61.0,17.0,30.08,ESE,110,8.0,26.0,18,0.00,,,-99.99,,2013-02-15 23:31:00,
2013-02-15 15:41:00,61.0,17.0,30.08,ESE,110,8.0,26.0,18,0.00,,,-99.99,,2013-02-15 23:41:00,
2013-02-15 15:52:00,61.0,17.0,30.08,ESE,110,8.0,26.0,18,0.00,,,-99.99,,2013-02-15 23:52:00,
2013-02-15 16:21:00,61.0,14.0,30.09,East,100,14.0,24.0,16,0.00,,,-99.99,,2013-02-16 00:21:00,
2013-02-15 16:32:00,61.0,14.0,30.09,East,100,14.0,24.0,16,0.00,,,-99.99,,2013-02-16 00:32:00,
2013-02-15 16:41:00,61.0,14.0,30.09,East,100,14.0,24.0,16,0.00,,,-99.99,,2013-02-16 00:41:00,
2013-02-15 16:51:00,61.0,14.0,30.09,East,100,14.0,24.0,16,0.00,,,-99.99,,2013-02-16 00:51:00,
2013-02-15 17:21:00,59.0,11.0,30.09,East,100,6.0,20.0,15,0.00,,,-99.99,,2013-02-16 01:21:00,
2013-02-15 17:31:00,59.0,11.0,30.09,East,100,6.0,20.0,15,0.00,,,-99.99,,2013-02-16 01:31:00,
2013-02-15 17:41:00,59.0,11.0,30.09,East,100,6.0,20.0,15,0.00,,,-99.99,,2013-02-16 01:41:00,
2013-02-15 17:51:00,59.0,11.0,30.09,East,100,6.0,20.0,15,0.00,,,-99.99,,2013-02-16 01:51:00,
2013-02-15 18:21:00,57.0,10.0,30.10,East,100,11.0,31.0,15,0.00,,,-99.99,,2013-02-16 02:21:00,
2013-02-15 18:31:00,57.0,10.0,30.10,East,100,11.0,31.0,15,0.00,,,-99.99,,2013-02-16 02:31:00,
2013-02-15 18:42:00,57.0,10.0,30.10,East,100,11.0,31.0,15,0.00,,,-99.99,,2013-02-16 02:42:00,
2013-02-15 18:52:00,57.0,10.0,30.10,East,100,11.0,31.0,15,0.00,,,-99.99,,2013-02-16 02:52:00,
2013-02-15 19:21:00,57.0,13.0,30.11,East,100,10.0,26.0,17,0.00,,,-99.99,,2013-02-16 03:21:00,
2013-02-15 19:31:00,57.0,13.0,30.11,East,100,10.0,26.0,17,0.00,,,-99.99,,2013-02-16 03:31:00,
2013-02-15 19:41:00,57.0,13.0,30.11,East,100,10.0,26.0,17,0.00,,,-99.99,,2013-02-16 03:41:00,
2013-02-15 19:52:00,57.0,13.0,30.11,East,100,10.0,26.0,17,0.00,,,-99.99,,2013-02-16 03:52:00,
2013-02-15 20:21:00,57.0,13.0,30.10,East,100,9.0,25.0,17,0.00,,,-99.99,,2013-02-16 04:21:00,
2013-02-15 20:31:00,57.0,13.0,30.10,East,100,9.0,25.0,17,0.00,,,-99.99,,2013-02-16 04:31:00,
2013-02-15 20:41:00,57.0,13.0,30.10,East,100,9.0,25.0,17,0.00,,,-99.99,,2013-02-16 04:41:00,
2013-02-15 20:51:00,57.0,13.0,30.10,East,100,9.0,25.0,17,0.00,,,-99.99,,2013-02-16 04:51:00,
2013-02-15 21:21:00,57.0,14.0,30.09,ESE,110,8.0,27.0,18,0.00,,,-99.99,,2013-02-16 05:21:00,
2013-02-15 21:31:00,57.0,14.0,30.09,ESE,110,8.0,27.0,18,0.00,,,-99.99,,2013-02-16 05:31:00,
2013-02-15 21:42:00,57.0,14.0,30.09,ESE,110,8.0,27.0,18,0.00,,,-99.99,,2013-02-16 05:42:00,
2013-02-15 21:52:00,57.0,14.0,30.09,ESE,110,8.0,27.0,18,0.00,,,-99.99,,2013-02-16 05:52:00,
2013-02-15 22:21:00,57.0,13.0,30.08,East,90,17.0,30.0,17,0.00,,,-99.99,,2013-02-16 06:21:00,
2013-02-15 22:32:00,57.0,13.0,30.08,East,90,17.0,30.0,17,0.00,,,-99.99,,2013-02-16 06:32:00,
2013-02-15 22:42:00,57.0,13.0,30.08,East,90,17.0,30.0,17,0.00,,,-99.99,,2013-02-16 06:42:00,
2013-02-15 22:51:00,57.0,13.0,30.08,East,90,17.0,30.0,17,0.00,,,-99.99,,2013-02-16 06:51:00,
2013-02-15 23:21:00,58.0,13.0,30.06,East,80,24.0,46.0,17,0.00,,,-99.99,,2013-02-16 07:21:00,
2013-02-15 23:31:00,58.0,13.0,30.06,East,80,24.0,46.0,17,0.00,,,-99.99,,2013-02-16 07:31:00,